���t ����,���t,����,���[1m,���[3m,���[10m
2024/02/01 1:00:00,2024/02/01,01:00:00,15.01,14.96,15.01
2024/02/01 2:00:00,2024/02/01,02:00:00,15,14.96,15.01
2024/02/01 3:00:00,2024/02/01,03:00:00,15.03,14.97,15.03
2024/02/01 4:00:00,2024/02/01,04:00:00,15.02,14.97,15.05
2024/02/01 5:00:00,2024/02/01,05:00:00,15.03,14.97,15.07
2024/02/01 6:00:00,2024/02/01,06:00:00,15.03,14.97,15.07
2024/02/01 7:00:00,2024/02/01,07:00:00,15.03,14.97,15.03
2024/02/01 8:00:00,2024/02/01,08:00:00,14.97,14.92,15.01
2024/02/01 9:00:00,2024/02/01,09:00:00,15.03,14.97,15.06
2024/02/01 10:00:00,2024/02/01,10:00:00,15.02,14.97,15.03
2024/02/01 11:00:00,2024/02/01,11:00:00,15.03,14.97,15.02
2024/02/01 12:00:00,2024/02/01,12:00:00,15,14.97,15.03
2024/02/01 13:00:00,2024/02/01,13:00:00,15,14.97,15.02
2024/02/01 14:00:00,2024/02/01,14:00:00,15.02,14.97,15.03
2024/02/01 15:00:00,2024/02/01,15:00:00,15.03,14.97,15.06
2024/02/01 16:00:00,2024/02/01,16:00:00,15.03,14.97,15.04
2024/02/01 17:00:00,2024/02/01,17:00:00,15.02,14.97,15.04
2024/02/01 18:00:00,2024/02/01,18:00:00,15.03,14.98,15.07
2024/02/01 19:00:00,2024/02/01,19:00:00,15.03,14.98,15.07
2024/02/01 20:00:00,2024/02/01,20:00:00,15.07,14.98,15.07
2024/02/01 21:00:00,2024/02/01,21:00:00,15.09,15.04,15.13
2024/02/01 22:00:00,2024/02/01,22:00:00,15.03,14.97,15.07
2024/02/01 23:00:00,2024/02/01,23:00:00,14.96,14.91,15.01
2024/02/02 0:00:00,2024/02/02,00:00:00,14.9,14.91,15.01
2024/02/02 1:00:00,2024/02/02,01:00:00,14.83,14.85,15.01
2024/02/02 2:00:00,2024/02/02,02:00:00,14.96,14.91,15
2024/02/02 3:00:00,2024/02/02,03:00:00,14.9,14.87,15.01
2024/02/02 4:00:00,2024/02/02,04:00:00,14.96,14.91,15.01
2024/02/02 5:00:00,2024/02/02,05:00:00,14.96,14.91,15.01
2024/02/02 6:00:00,2024/02/02,06:00:00,14.96,14.91,15.01
2024/02/02 7:00:00,2024/02/02,07:00:00,14.96,14.92,15.01
2024/02/02 8:00:00,2024/02/02,08:00:00,15.03,14.97,15.07
2024/02/02 9:00:00,2024/02/02,09:00:00,15.15,15.1,15.16
2024/02/02 10:00:00,2024/02/02,10:00:00,15.15,15.09,15.14
2024/02/02 11:00:00,2024/02/02,11:00:00,15.09,15.04,15.07
2024/02/02 12:00:00,2024/02/02,12:00:00,15.09,15.03,15.13
2024/02/02 13:00:00,2024/02/02,13:00:00,15.13,15.05,15.13
2024/02/02 14:00:00,2024/02/02,14:00:00,15.09,15.02,15.08
2024/02/02 15:00:00,2024/02/02,15:00:00,15.09,15.03,15.08
2024/02/02 16:00:00,2024/02/02,16:00:00,15.09,15.04,15.13
2024/02/02 17:00:00,2024/02/02,17:00:00,15.09,15.03,15.12
2024/02/02 18:00:00,2024/02/02,18:00:00,15.12,15.1,15.14
2024/02/02 19:00:00,2024/02/02,19:00:00,15.15,15.1,15.15
2024/02/02 20:00:00,2024/02/02,20:00:00,15.15,15.1,15.2
2024/02/02 21:00:00,2024/02/02,21:00:00,15.21,15.16,15.25
2024/02/02 22:00:00,2024/02/02,22:00:00,15.22,15.16,15.26
2024/02/02 23:00:00,2024/02/02,23:00:00,15.13,15.06,15.13
2024/02/03 0:00:00,2024/02/03,00:00:00,15.1,15.07,15.14
2024/02/03 1:00:00,2024/02/03,01:00:00,15.1,15.05,15.13
2024/02/03 2:00:00,2024/02/03,02:00:00,15.09,15.04,15.13
2024/02/03 3:00:00,2024/02/03,03:00:00,15.09,15.04,15.13
2024/02/03 4:00:00,2024/02/03,04:00:00,15.02,14.97,15.03
2024/02/03 5:00:00,2024/02/03,05:00:00,15.03,14.97,15.06
2024/02/03 6:00:00,2024/02/03,06:00:00,15.21,15.13,15.2
2024/02/03 7:00:00,2024/02/03,07:00:00,15.1,15.05,15.12
2024/02/03 8:00:00,2024/02/03,08:00:00,15.1,15.04,15.08
2024/02/03 9:00:00,2024/02/03,09:00:00,15.09,15.03,15.1
2024/02/03 10:00:00,2024/02/03,10:00:00,15.34,15.29,15.2
2024/02/03 11:00:00,2024/02/03,11:00:00,15.22,15.16,15.2
2024/02/03 12:00:00,2024/02/03,12:00:00,15.21,15.13,15.13
2024/02/03 13:00:00,2024/02/03,13:00:00,15.26,15.21,15.18
2024/02/03 14:00:00,2024/02/03,14:00:00,15.21,15.16,15.2
2024/02/03 15:00:00,2024/02/03,15:00:00,15.52,15.35,15.32
2024/02/03 16:00:00,2024/02/03,16:00:00,15.47,15.37,15.32
2024/02/03 17:00:00,2024/02/03,17:00:00,15.47,15.41,15.34
2024/02/03 18:00:00,2024/02/03,18:00:00,15.47,15.41,15.4
2024/02/03 19:00:00,2024/02/03,19:00:00,15.47,15.42,15.45
2024/02/03 20:00:00,2024/02/03,20:00:00,15.46,15.38,15.45
2024/02/03 21:00:00,2024/02/03,21:00:00,15.46,15.42,15.49
2024/02/03 22:00:00,2024/02/03,22:00:00,15.46,15.43,15.51
2024/02/03 23:00:00,2024/02/03,23:00:00,15.6,15.54,15.57
2024/02/04 0:00:00,2024/02/04,00:00:00,15.5,15.46,15.47
2024/02/04 1:00:00,2024/02/04,01:00:00,15.51,15.41,15.44
2024/02/04 2:00:00,2024/02/04,02:00:00,15.46,15.36,15.45
2024/02/04 3:00:00,2024/02/04,03:00:00,15.4,15.37,15.44
2024/02/04 4:00:00,2024/02/04,04:00:00,15.79,15.59,15.69
2024/02/04 5:00:00,2024/02/04,05:00:00,15.78,15.75,15.51
2024/02/04 6:00:00,2024/02/04,06:00:00,15.59,15.48,15.51
2024/02/04 7:00:00,2024/02/04,07:00:00,15.72,15.66,15.76
2024/02/04 8:00:00,2024/02/04,08:00:00,15.84,15.73,15.67
2024/02/04 9:00:00,2024/02/04,09:00:00,15.86,15.74,15.74
2024/02/04 10:00:00,2024/02/04,10:00:00,15.9,15.82,15.76
2024/02/04 11:00:00,2024/02/04,11:00:00,15.98,15.92,15.89
2024/02/04 12:00:00,2024/02/04,12:00:00,16.03,15.95,15.92
2024/02/04 13:00:00,2024/02/04,13:00:00,16.01,15.92,15.91
2024/02/04 14:00:00,2024/02/04,14:00:00,15.84,15.73,15.65
2024/02/04 15:00:00,2024/02/04,15:00:00,15.84,15.72,15.7
2024/02/04 16:00:00,2024/02/04,16:00:00,16.42,16.28,15.89
2024/02/04 17:00:00,2024/02/04,17:00:00,16.46,16.32,16.2
2024/02/04 18:00:00,2024/02/04,18:00:00,16.34,16.25,16.23
2024/02/04 19:00:00,2024/02/04,19:00:00,16.47,16.25,16.2
2024/02/04 20:00:00,2024/02/04,20:00:00,16.53,16.42,16.38
2024/02/04 21:00:00,2024/02/04,21:00:00,16.58,16.47,16.45
2024/02/04 22:00:00,2024/02/04,22:00:00,16.53,16.48,16.51
2024/02/04 23:00:00,2024/02/04,23:00:00,16.36,16.29,16.22
2024/02/05 0:00:00,2024/02/05,00:00:00,16.27,16.19,16.17
2024/02/05 1:00:00,2024/02/05,01:00:00,16.3,16.17,16.11
2024/02/05 2:00:00,2024/02/05,02:00:00,16.34,16.19,16.02
2024/02/05 3:00:00,2024/02/05,03:00:00,16.36,16.1,15.94
2024/02/05 4:00:00,2024/02/05,04:00:00,16.28,15.92,15.82
2024/02/05 5:00:00,2024/02/05,05:00:00,16.25,15.98,15.92
2024/02/05 6:00:00,2024/02/05,06:00:00,16.28,16.1,15.97
2024/02/05 7:00:00,2024/02/05,07:00:00,16.41,16.23,16.19
2024/02/05 8:00:00,2024/02/05,08:00:00,16.52,16.45,16.25
2024/02/05 9:00:00,2024/02/05,09:00:00,16.59,16.6,16.45
2024/02/05 10:00:00,2024/02/05,10:00:00,16.67,16.61,16.61
2024/02/05 11:00:00,2024/02/05,11:00:00,16.56,16.52,16.57
2024/02/05 12:00:00,2024/02/05,12:00:00,16.53,16.47,16.51
2024/02/05 13:00:00,2024/02/05,13:00:00,16.46,16.42,16.51
2024/02/05 14:00:00,2024/02/05,14:00:00,16.46,16.41,16.47
2024/02/05 15:00:00,2024/02/05,15:00:00,16.4,16.36,16.45
2024/02/05 16:00:00,2024/02/05,16:00:00,16.46,16.41,16.45
2024/02/05 17:00:00,2024/02/05,17:00:00,16.4,16.36,16.45
2024/02/05 18:00:00,2024/02/05,18:00:00,16.41,16.42,16.64
2024/02/05 19:00:00,2024/02/05,19:00:00,16.65,16.71,16.76
2024/02/05 20:00:00,2024/02/05,20:00:00,16.59,16.67,16.63
2024/02/05 21:00:00,2024/02/05,21:00:00,16.75,16.55,16.52
2024/02/05 22:00:00,2024/02/05,22:00:00,16.52,16.6,16.51
2024/02/05 23:00:00,2024/02/05,23:00:00,16.59,16.49,16.46
2024/02/06 0:00:00,2024/02/06,00:00:00,16.69,16.61,16.53
2024/02/06 1:00:00,2024/02/06,01:00:00,16.61,16.56,16.5
2024/02/06 2:00:00,2024/02/06,02:00:00,16.5,16.49,16.21
2024/02/06 3:00:00,2024/02/06,03:00:00,16.16,16.42,16.33
2024/02/06 4:00:00,2024/02/06,04:00:00,16.39,16.23,16.14
2024/02/06 5:00:00,2024/02/06,05:00:00,16.34,16.17,16.07
2024/02/06 6:00:00,2024/02/06,06:00:00,16.08,16.1,15.95
2024/02/06 7:00:00,2024/02/06,07:00:00,16.09,15.98,15.85
2024/02/06 8:00:00,2024/02/06,08:00:00,16.1,15.89,15.89
2024/02/06 9:00:00,2024/02/06,09:00:00,16.03,15.86,15.95
2024/02/06 10:00:00,2024/02/06,10:00:00,16.1,15.92,15.94
2024/02/06 11:00:00,2024/02/06,11:00:00,16.24,15.97,15.94
2024/02/06 12:00:00,2024/02/06,12:00:00,16.03,15.91,15.95
2024/02/06 13:00:00,2024/02/06,13:00:00,16.15,15.92,15.94
2024/02/06 14:00:00,2024/02/06,14:00:00,16.4,16.16,16.18
2024/02/06 15:00:00,2024/02/06,15:00:00,16.34,16.23,16.26
2024/02/06 16:00:00,2024/02/06,16:00:00,16.09,15.98,16.01
2024/02/06 17:00:00,2024/02/06,17:00:00,16.09,15.92,15.89
2024/02/06 18:00:00,2024/02/06,18:00:00,16.02,15.91,15.88
2024/02/06 19:00:00,2024/02/06,19:00:00,16.03,15.92,15.76
2024/02/06 20:00:00,2024/02/06,20:00:00,16.09,15.92,15.9
2024/02/06 21:00:00,2024/02/06,21:00:00,16.1,15.97,15.95
2024/02/06 22:00:00,2024/02/06,22:00:00,16.03,15.91,15.89
2024/02/06 23:00:00,2024/02/06,23:00:00,16.03,15.85,15.88
2024/02/07 0:00:00,2024/02/07,00:00:00,15.9,15.83,15.89
2024/02/07 1:00:00,2024/02/07,01:00:00,15.9,15.85,15.89
2024/02/07 2:00:00,2024/02/07,02:00:00,15.89,15.82,15.89
2024/02/07 3:00:00,2024/02/07,03:00:00,15.9,15.86,15.72
2024/02/07 4:00:00,2024/02/07,04:00:00,15.85,15.73,15.64
2024/02/07 5:00:00,2024/02/07,05:00:00,15.85,15.79,15.7
2024/02/07 6:00:00,2024/02/07,06:00:00,15.65,15.59,15.64
2024/02/07 7:00:00,2024/02/07,07:00:00,15.6,15.55,15.63
2024/02/07 8:00:00,2024/02/07,08:00:00,15.72,15.66,15.7
2024/02/07 9:00:00,2024/02/07,09:00:00,16.1,15.91,15.82
2024/02/07 10:00:00,2024/02/07,10:00:00,16.09,15.94,15.76
2024/02/07 11:00:00,2024/02/07,11:00:00,16.16,16.04,15.94
2024/02/07 12:00:00,2024/02/07,12:00:00,16.18,16.1,16.01
2024/02/07 13:00:00,2024/02/07,13:00:00,16.21,16.1,16.07
2024/02/07 14:00:00,2024/02/07,14:00:00,16.34,16.24,16.2
2024/02/07 15:00:00,2024/02/07,15:00:00,16.28,16.23,16.26
2024/02/07 16:00:00,2024/02/07,16:00:00,16.28,16.23,16.26
2024/02/07 17:00:00,2024/02/07,17:00:00,16.09,15.98,15.94
2024/02/07 18:00:00,2024/02/07,18:00:00,16.09,15.99,15.96
2024/02/07 19:00:00,2024/02/07,19:00:00,16.03,15.98,16.01
2024/02/07 20:00:00,2024/02/07,20:00:00,15.96,15.92,15.95
2024/02/07 21:00:00,2024/02/07,21:00:00,16.07,16.04,16.12
2024/02/07 22:00:00,2024/02/07,22:00:00,16.09,16.04,16.07
2024/02/07 23:00:00,2024/02/07,23:00:00,16.02,15.98,16.07
2024/02/08 0:00:00,2024/02/08,00:00:00,16.03,15.98,16.04
2024/02/08 1:00:00,2024/02/08,01:00:00,16.02,15.98,16.02
2024/02/08 2:00:00,2024/02/08,02:00:00,15.98,15.92,16.01
2024/02/08 3:00:00,2024/02/08,03:00:00,15.96,15.92,16.01
2024/02/08 4:00:00,2024/02/08,04:00:00,15.9,15.84,15.89
2024/02/08 5:00:00,2024/02/08,05:00:00,15.9,15.85,15.9
2024/02/08 6:00:00,2024/02/08,06:00:00,15.82,15.76,15.82
2024/02/08 7:00:00,2024/02/08,07:00:00,15.84,15.79,15.84
2024/02/08 8:00:00,2024/02/08,08:00:00,15.84,15.78,15.83
2024/02/08 9:00:00,2024/02/08,09:00:00,16.16,16.25,15.9
2024/02/08 10:00:00,2024/02/08,10:00:00,16.44,16.42,16.39
2024/02/08 11:00:00,2024/02/08,11:00:00,16.57,16.36,16.2
2024/02/08 12:00:00,2024/02/08,12:00:00,16.74,16.61,16.39
2024/02/08 13:00:00,2024/02/08,13:00:00,16.78,16.61,16.58
2024/02/08 14:00:00,2024/02/08,14:00:00,16.71,16.56,16.58
2024/02/08 15:00:00,2024/02/08,15:00:00,16.71,16.67,16.7
2024/02/08 16:00:00,2024/02/08,16:00:00,16.46,16.38,16.39
2024/02/08 17:00:00,2024/02/08,17:00:00,16.53,16.43,16.45
2024/02/08 18:00:00,2024/02/08,18:00:00,16.62,16.41,16.26
2024/02/08 19:00:00,2024/02/08,19:00:00,16.39,16.31,16.39
2024/02/08 20:00:00,2024/02/08,20:00:00,16.52,16.41,16.26
2024/02/08 21:00:00,2024/02/08,21:00:00,16.46,16.38,16.39
2024/02/08 22:00:00,2024/02/08,22:00:00,16.46,16.42,16.39
2024/02/08 23:00:00,2024/02/08,23:00:00,16.38,16.36,16.4
2024/02/09 0:00:00,2024/02/09,00:00:00,16.21,16.1,16.09
2024/02/09 1:00:00,2024/02/09,01:00:00,16.28,16.23,16.24
2024/02/09 2:00:00,2024/02/09,02:00:00,16.28,16.17,16.2
2024/02/09 3:00:00,2024/02/09,03:00:00,16.21,16.12,15.87
2024/02/09 4:00:00,2024/02/09,04:00:00,16.19,16.1,15.98
2024/02/09 5:00:00,2024/02/09,05:00:00,16.2,16.1,15.7
2024/02/09 6:00:00,2024/02/09,06:00:00,16.09,15.96,15.83
2024/02/09 7:00:00,2024/02/09,07:00:00,15.75,15.66,15.71
2024/02/09 8:00:00,2024/02/09,08:00:00,15.78,15.73,15.74
2024/02/09 9:00:00,2024/02/09,09:00:00,16.75,16.61,16.28
2024/02/09 10:00:00,2024/02/09,10:00:00,16.64,16.36,16.2
2024/02/09 11:00:00,2024/02/09,11:00:00,16.58,16.53,16.41
2024/02/09 12:00:00,2024/02/09,12:00:00,16.64,16.54,16.4
2024/02/09 13:00:00,2024/02/09,13:00:00,16.84,16.79,16.65
2024/02/09 14:00:00,2024/02/09,14:00:00,16.65,16.61,16.65
2024/02/09 15:00:00,2024/02/09,15:00:00,16.43,16.42,16.38
2024/02/09 16:00:00,2024/02/09,16:00:00,16.56,16.48,16.55
2024/02/09 17:00:00,2024/02/09,17:00:00,16.46,16.41,16.4
2024/02/09 18:00:00,2024/02/09,18:00:00,16.46,16.41,16.11
2024/02/09 19:00:00,2024/02/09,19:00:00,16.21,16.11,16.1
2024/02/09 20:00:00,2024/02/09,20:00:00,16.15,16.16,16.25
2024/02/09 21:00:00,2024/02/09,21:00:00,16.34,16.29,16.39
2024/02/09 22:00:00,2024/02/09,22:00:00,16.33,16.29,16.32
2024/02/09 23:00:00,2024/02/09,23:00:00,16.3,16.23,16.32
2024/02/10 0:00:00,2024/02/10,00:00:00,16.27,16.22,16.27
2024/02/10 1:00:00,2024/02/10,01:00:00,16.23,16.17,16.25
2024/02/10 2:00:00,2024/02/10,02:00:00,16.23,16.19,16.2
2024/02/10 3:00:00,2024/02/10,03:00:00,16.21,16.16,16.2
2024/02/10 4:00:00,2024/02/10,04:00:00,16.02,15.97,15.96
2024/02/10 5:00:00,2024/02/10,05:00:00,16.04,15.92,15.76
2024/02/10 6:00:00,2024/02/10,06:00:00,16.1,15.91,15.72
2024/02/10 7:00:00,2024/02/10,07:00:00,15.84,15.79,15.77
2024/02/10 8:00:00,2024/02/10,08:00:00,15.66,15.61,15.69
2024/02/10 9:00:00,2024/02/10,09:00:00,15.86,15.72,15.72
2024/02/10 10:00:00,2024/02/10,10:00:00,16.28,16.17,15.95
2024/02/10 11:00:00,2024/02/10,11:00:00,16.46,16.36,16.36
2024/02/10 12:00:00,2024/02/10,12:00:00,16.53,16.41,16.32
2024/02/10 13:00:00,2024/02/10,13:00:00,16.51,16.42,16.33
2024/02/10 14:00:00,2024/02/10,14:00:00,16.66,16.63,16.49
2024/02/10 15:00:00,2024/02/10,15:00:00,16.54,16.48,16.51
2024/02/10 16:00:00,2024/02/10,16:00:00,16.34,16.29,16.32
2024/02/10 17:00:00,2024/02/10,17:00:00,16.25,16.16,16.07
2024/02/10 18:00:00,2024/02/10,18:00:00,16.08,15.97,16.01
2024/02/10 19:00:00,2024/02/10,19:00:00,16.28,16.17,16.2
2024/02/10 20:00:00,2024/02/10,20:00:00,16.08,16.04,16.09
2024/02/10 21:00:00,2024/02/10,21:00:00,16.21,16.15,16.25
2024/02/10 22:00:00,2024/02/10,22:00:00,16.09,16.04,16.1
2024/02/10 23:00:00,2024/02/10,23:00:00,16.15,16.07,16.14
2024/02/11 0:00:00,2024/02/11,00:00:00,16.12,16.08,16.14
2024/02/11 1:00:00,2024/02/11,01:00:00,16.09,16.04,16.14
2024/02/11 2:00:00,2024/02/11,02:00:00,16.09,16.04,16.13
2024/02/11 3:00:00,2024/02/11,03:00:00,16.09,16.04,16.12
2024/02/11 4:00:00,2024/02/11,04:00:00,16.03,15.97,16.01
2024/02/11 5:00:00,2024/02/11,05:00:00,15.79,15.73,15.59
2024/02/11 6:00:00,2024/02/11,06:00:00,15.9,15.6,15.59
2024/02/11 7:00:00,2024/02/11,07:00:00,15.65,15.6,15.64
2024/02/11 8:00:00,2024/02/11,08:00:00,15.53,15.48,15.51
2024/02/11 9:00:00,2024/02/11,09:00:00,15.71,15.66,15.76
2024/02/11 10:00:00,2024/02/11,10:00:00,16.1,15.92,15.64
2024/02/11 11:00:00,2024/02/11,11:00:00,15.96,15.88,15.82
2024/02/11 12:00:00,2024/02/11,12:00:00,16.21,16.1,16.11
2024/02/11 13:00:00,2024/02/11,13:00:00,16.21,16.11,16.11
2024/02/11 14:00:00,2024/02/11,14:00:00,16.39,16.29,16.2
2024/02/11 15:00:00,2024/02/11,15:00:00,16.34,16.29,16.33
2024/02/11 16:00:00,2024/02/11,16:00:00,16.13,16.1,16.07
2024/02/11 17:00:00,2024/02/11,17:00:00,15.9,15.85,15.94
2024/02/11 18:00:00,2024/02/11,18:00:00,15.94,15.9,15.82
2024/02/11 19:00:00,2024/02/11,19:00:00,15.93,15.86,15.95
2024/02/11 20:00:00,2024/02/11,20:00:00,15.84,15.79,15.87
2024/02/11 21:00:00,2024/02/11,21:00:00,15.99,15.95,16.01
2024/02/11 22:00:00,2024/02/11,22:00:00,15.9,15.88,15.95
2024/02/11 23:00:00,2024/02/11,23:00:00,16.07,15.9,15.91
2024/02/12 0:00:00,2024/02/12,00:00:00,16.08,16.04,16.01
2024/02/12 1:00:00,2024/02/12,01:00:00,15.96,15.92,15.95
2024/02/12 2:00:00,2024/02/12,02:00:00,15.96,15.91,15.95
2024/02/12 3:00:00,2024/02/12,03:00:00,15.89,15.79,15.82
2024/02/12 4:00:00,2024/02/12,04:00:00,15.71,15.73,15.82
2024/02/12 5:00:00,2024/02/12,05:00:00,15.7,15.66,15.57
2024/02/12 6:00:00,2024/02/12,06:00:00,15.4,15.48,15.32
2024/02/12 7:00:00,2024/02/12,07:00:00,15.4,15.31,15.32
2024/02/12 8:00:00,2024/02/12,08:00:00,15.22,15.2,15.26
2024/02/12 9:00:00,2024/02/12,09:00:00,15.42,15.35,15.32
2024/02/12 10:00:00,2024/02/12,10:00:00,15.29,15.22,15.31
2024/02/12 11:00:00,2024/02/12,11:00:00,16.08,16.04,15.95
2024/02/12 12:00:00,2024/02/12,12:00:00,16.21,16.08,16.07
2024/02/12 13:00:00,2024/02/12,13:00:00,16.03,15.98,16.01
2024/02/12 14:00:00,2024/02/12,14:00:00,15.97,15.93,16.01
2024/02/12 15:00:00,2024/02/12,15:00:00,16.03,15.92,16
2024/02/12 16:00:00,2024/02/12,16:00:00,16.02,15.92,16.01
2024/02/12 17:00:00,2024/02/12,17:00:00,15.96,15.9,15.95
2024/02/12 18:00:00,2024/02/12,18:00:00,15.84,15.79,15.82
2024/02/12 19:00:00,2024/02/12,19:00:00,15.71,15.59,15.66
2024/02/12 20:00:00,2024/02/12,20:00:00,15.71,15.66,15.71
2024/02/12 21:00:00,2024/02/12,21:00:00,15.71,15.66,15.75
2024/02/12 22:00:00,2024/02/12,22:00:00,15.81,15.73,15.81
2024/02/12 23:00:00,2024/02/12,23:00:00,15.77,15.73,15.76
2024/02/13 0:00:00,2024/02/13,00:00:00,15.9,15.84,15.82
2024/02/13 1:00:00,2024/02/13,01:00:00,15.78,15.73,15.81
2024/02/13 2:00:00,2024/02/13,02:00:00,15.9,15.79,15.8
2024/02/13 3:00:00,2024/02/13,03:00:00,15.89,15.79,15.82
2024/02/13 4:00:00,2024/02/13,04:00:00,15.84,15.79,15.83
2024/02/13 5:00:00,2024/02/13,05:00:00,15.77,15.72,15.76
2024/02/13 6:00:00,2024/02/13,06:00:00,15.78,15.73,15.79
2024/02/13 7:00:00,2024/02/13,07:00:00,15.65,15.6,15.56
2024/02/13 8:00:00,2024/02/13,08:00:00,15.65,15.6,15.7
2024/02/13 9:00:00,2024/02/13,09:00:00,15.53,15.41,15.54
2024/02/13 10:00:00,2024/02/13,10:00:00,15.49,15.41,15.44
2024/02/13 11:00:00,2024/02/13,11:00:00,15.6,15.41,15.46
2024/02/13 12:00:00,2024/02/13,12:00:00,16.03,16.03,16.01
2024/02/13 13:00:00,2024/02/13,13:00:00,16.09,16.04,15.95
2024/02/13 14:00:00,2024/02/13,14:00:00,16.21,16.09,16.07
2024/02/13 15:00:00,2024/02/13,15:00:00,16.15,15.99,15.91
2024/02/13 16:00:00,2024/02/13,16:00:00,16.06,15.98,16.04
2024/02/13 17:00:00,2024/02/13,17:00:00,15.96,15.9,15.93
2024/02/13 18:00:00,2024/02/13,18:00:00,15.84,15.79,15.82
2024/02/13 19:00:00,2024/02/13,19:00:00,15.9,15.61,15.51
2024/02/13 20:00:00,2024/02/13,20:00:00,16.03,15.77,15.54
2024/02/13 21:00:00,2024/02/13,21:00:00,15.71,15.66,15.7
2024/02/13 22:00:00,2024/02/13,22:00:00,15.58,15.53,15.52
2024/02/13 23:00:00,2024/02/13,23:00:00,15.71,15.63,15.76
2024/02/14 0:00:00,2024/02/14,00:00:00,15.71,15.65,15.66
2024/02/14 1:00:00,2024/02/14,01:00:00,16.15,16.04,15.89
2024/02/14 2:00:00,2024/02/14,02:00:00,16,15.97,15.85
2024/02/14 3:00:00,2024/02/14,03:00:00,15.96,15.92,15.92
2024/02/14 4:00:00,2024/02/14,04:00:00,15.9,15.85,15.94
2024/02/14 5:00:00,2024/02/14,05:00:00,15.84,15.78,15.8
2024/02/14 6:00:00,2024/02/14,06:00:00,15.78,15.7,15.75
2024/02/14 7:00:00,2024/02/14,07:00:00,15.65,15.6,15.69
2024/02/14 8:00:00,2024/02/14,08:00:00,15.7,15.65,15.7
2024/02/14 9:00:00,2024/02/14,09:00:00,15.71,15.66,15.75
2024/02/14 10:00:00,2024/02/14,10:00:00,15.75,15.68,15.74
2024/02/14 11:00:00,2024/02/14,11:00:00,15.72,15.66,15.76
2024/02/14 12:00:00,2024/02/14,12:00:00,15.72,15.66,15.76
2024/02/14 13:00:00,2024/02/14,13:00:00,16.09,15.85,15.81
2024/02/14 14:00:00,2024/02/14,14:00:00,16.08,16.04,15.89
2024/02/14 15:00:00,2024/02/14,15:00:00,15.96,15.85,15.82
2024/02/14 16:00:00,2024/02/14,16:00:00,15.89,15.85,15.89
2024/02/14 17:00:00,2024/02/14,17:00:00,15.88,15.82,15.89
2024/02/14 18:00:00,2024/02/14,18:00:00,15.8,15.73,15.82
2024/02/14 19:00:00,2024/02/14,19:00:00,15.79,15.74,15.82
2024/02/14 20:00:00,2024/02/14,20:00:00,15.78,15.73,15.81
2024/02/14 21:00:00,2024/02/14,21:00:00,15.74,15.7,15.76
2024/02/14 22:00:00,2024/02/14,22:00:00,15.71,15.66,15.74
2024/02/14 23:00:00,2024/02/14,23:00:00,15.71,15.66,15.7
2024/02/15 0:00:00,2024/02/15,00:00:00,15.71,15.66,15.76
2024/02/15 1:00:00,2024/02/15,01:00:00,15.71,15.66,15.72
2024/02/15 2:00:00,2024/02/15,02:00:00,15.71,15.66,15.76
2024/02/15 3:00:00,2024/02/15,03:00:00,15.72,15.7,15.76
2024/02/15 4:00:00,2024/02/15,04:00:00,15.71,15.66,15.75
2024/02/15 5:00:00,2024/02/15,05:00:00,15.72,15.68,15.76
2024/02/15 6:00:00,2024/02/15,06:00:00,15.71,15.66,15.76
2024/02/15 7:00:00,2024/02/15,07:00:00,15.71,15.66,15.76
2024/02/15 8:00:00,2024/02/15,08:00:00,15.77,15.73,15.79
2024/02/15 9:00:00,2024/02/15,09:00:00,15.71,15.66,15.72
2024/02/15 10:00:00,2024/02/15,10:00:00,15.71,15.66,15.74
2024/02/15 11:00:00,2024/02/15,11:00:00,15.74,15.67,15.76
2024/02/15 12:00:00,2024/02/15,12:00:00,15.84,15.73,15.76
2024/02/15 13:00:00,2024/02/15,13:00:00,15.89,15.79,15.82
2024/02/15 14:00:00,2024/02/15,14:00:00,16.02,15.85,15.87
2024/02/15 15:00:00,2024/02/15,15:00:00,15.96,15.86,15.9
2024/02/15 16:00:00,2024/02/15,16:00:00,15.96,15.85,15.95
2024/02/15 17:00:00,2024/02/15,17:00:00,15.9,15.85,15.9
2024/02/15 18:00:00,2024/02/15,18:00:00,15.9,15.85,15.92
2024/02/15 19:00:00,2024/02/15,19:00:00,15.89,15.85,15.91
2024/02/15 20:00:00,2024/02/15,20:00:00,15.84,15.79,15.89
2024/02/15 21:00:00,2024/02/15,21:00:00,15.9,15.86,15.94
2024/02/15 22:00:00,2024/02/15,22:00:00,15.87,15.85,15.9
2024/02/15 23:00:00,2024/02/15,23:00:00,15.88,15.83,15.89
2024/02/16 0:00:00,2024/02/16,00:00:00,15.84,15.79,15.89
2024/02/16 1:00:00,2024/02/16,01:00:00,15.84,15.79,15.88
2024/02/16 2:00:00,2024/02/16,02:00:00,15.84,15.79,15.88
2024/02/16 3:00:00,2024/02/16,03:00:00,15.84,15.79,15.86
2024/02/16 4:00:00,2024/02/16,04:00:00,15.83,15.79,15.85
2024/02/16 5:00:00,2024/02/16,05:00:00,15.78,15.73,15.82
2024/02/16 6:00:00,2024/02/16,06:00:00,15.76,15.72,15.81
2024/02/16 7:00:00,2024/02/16,07:00:00,15.78,15.73,15.8
2024/02/16 8:00:00,2024/02/16,08:00:00,15.76,15.71,15.76
2024/02/16 9:00:00,2024/02/16,09:00:00,15.78,15.73,15.82
2024/02/16 10:00:00,2024/02/16,10:00:00,15.84,15.75,15.82
2024/02/16 11:00:00,2024/02/16,11:00:00,15.84,15.73,15.82
2024/02/16 12:00:00,2024/02/16,12:00:00,15.84,15.77,15.82
2024/02/16 13:00:00,2024/02/16,13:00:00,15.85,15.79,15.86
2024/02/16 14:00:00,2024/02/16,14:00:00,15.9,15.82,15.89
2024/02/16 15:00:00,2024/02/16,15:00:00,15.96,15.86,15.95
2024/02/16 16:00:00,2024/02/16,16:00:00,15.93,15.85,15.95
2024/02/16 17:00:00,2024/02/16,17:00:00,15.84,15.79,15.89
2024/02/16 18:00:00,2024/02/16,18:00:00,15.81,15.78,15.84
2024/02/16 19:00:00,2024/02/16,19:00:00,15.83,15.79,15.83
2024/02/16 20:00:00,2024/02/16,20:00:00,15.83,15.79,15.86
2024/02/16 21:00:00,2024/02/16,21:00:00,15.84,15.79,15.88
2024/02/16 22:00:00,2024/02/16,22:00:00,15.87,15.81,15.89
2024/02/16 23:00:00,2024/02/16,23:00:00,15.83,15.79,15.82
2024/02/17 0:00:00,2024/02/17,00:00:00,15.8,15.74,15.82
2024/02/17 1:00:00,2024/02/17,01:00:00,15.78,15.73,15.82
2024/02/17 2:00:00,2024/02/17,02:00:00,15.78,15.73,15.8
2024/02/17 3:00:00,2024/02/17,03:00:00,15.75,15.72,15.77
2024/02/17 4:00:00,2024/02/17,04:00:00,15.71,15.66,15.76
2024/02/17 5:00:00,2024/02/17,05:00:00,15.71,15.66,15.71
2024/02/17 6:00:00,2024/02/17,06:00:00,15.71,15.66,15.74
2024/02/17 7:00:00,2024/02/17,07:00:00,15.71,15.66,15.72
2024/02/17 8:00:00,2024/02/17,08:00:00,15.71,15.66,15.7
2024/02/17 9:00:00,2024/02/17,09:00:00,15.78,15.66,15.72
2024/02/17 10:00:00,2024/02/17,10:00:00,15.78,15.73,15.76
2024/02/17 11:00:00,2024/02/17,11:00:00,15.92,15.81,15.89
2024/02/17 12:00:00,2024/02/17,12:00:00,15.89,15.79,15.83
2024/02/17 13:00:00,2024/02/17,13:00:00,15.9,15.79,15.83
2024/02/17 14:00:00,2024/02/17,14:00:00,15.96,15.85,15.85
2024/02/17 15:00:00,2024/02/17,15:00:00,16.15,15.92,15.92
2024/02/17 16:00:00,2024/02/17,16:00:00,16.21,15.98,16
2024/02/17 17:00:00,2024/02/17,17:00:00,16.01,15.92,15.92
2024/02/17 18:00:00,2024/02/17,18:00:00,16.02,15.92,15.97
2024/02/17 19:00:00,2024/02/17,19:00:00,15.96,15.92,15.95
2024/02/17 20:00:00,2024/02/17,20:00:00,16.03,15.93,15.95
2024/02/17 21:00:00,2024/02/17,21:00:00,15.96,15.92,15.93
2024/02/17 22:00:00,2024/02/17,22:00:00,15.97,15.92,15.9
2024/02/17 23:00:00,2024/02/17,23:00:00,15.93,15.85,15.92
2024/02/18 0:00:00,2024/02/18,00:00:00,15.91,15.88,15.95
2024/02/18 1:00:00,2024/02/18,01:00:00,15.92,15.86,15.91
2024/02/18 2:00:00,2024/02/18,02:00:00,15.9,15.85,15.89
2024/02/18 3:00:00,2024/02/18,03:00:00,15.84,15.8,15.89